Вернуться в каталог

IRIDIUM 33 DEB

АктивенPO
NORAD 34486·DEBRIS·🇺🇸 United States

Запущен Sep 14, 1997 с Baikonur Cosmodrome

Loading…

Ближайшие Пролёты (ближайшие 24 часа)

TLE

СвежийSource: Space-Track

Эпоха: Sep 14, 2026, 10:36 UTC

1 34486U 97051GB  26257.44209372  .00026309  00000-0  15002-2 0  9990
2 34486  86.3752 242.7225 0006741 145.4212   7.1603 15.12636888931322

Отслеживайте IRIDIUM 33 DEB в реальном времени с AllMySat

Download on the App Store